Location: Tierra del Sol
(32.6128°N, 116.3319°W)
Time: 20:12:35
(UTC-07:00)

Envisat - Pass Details

Date: 08 October 2017
Orbit: 764 x 766 km, 98.2° (Epoch: 20 October)

Event Time Altitude Azimuth Distance (km) Brightness Sun altitude
Exits shadow 19:21:38 12° 53° (NE) 2,150 4.9 -13.7°
Drops below altitude 10° 19:22:49 10° 39° (NE) 2,304 5.1 -13.9°
Sets 19:26:26 0° 13° (NNE) 3,235 6.1 -14.7°
